Find Starlink 32009

NORAD ID: 60104 Int'l Des: 2024-117 Owner: SPXS Country: US Constellation: starlink operational
LEOCIRCULAR

現在のビュー

3D地球を読み込み中...

About Starlink 32009

Starlink 32009 (NORAD 60104) is a starlink constellation satellite (v2 mini) launched Jun 23, 2024 by SPXS of US. It operates in LEO, CIRCULAR orbit with a mass of 730.00 kg.

次回通過

Passes for default location (London). Set your location on the main map for personalized predictions.

高度履歴

Loading altitude history...

軌道要素

1 60104U 24117P 26265.22746348 .00000234 00000-0 18072-4 0 9994
2 60104 53.1614 201.6235 0001408 80.8291 279.2871 15.34390338127019
Epoch: Sep 22, 2026 • Age: 6 hours

現在のステータス

高度 476.7 km
遠地点 / 近地点 N/A
速度 7.63 km/s
衛星直下点 -39.81°S, 109.82°W
打ち上げ日 Jun 23, 2024
運用期間 2.2 years
タイプ internet

技術仕様

分類 Payload
質量 730.00 kg
乾燥質量 700.00 kg
長さ 0.30 m
スパン 29.00 m
形状 ? Box + pan
製造者 SPXS
バスタイプ Starlink V2M
フェーズステータス In Orbit
所有者/国 SPXS/US

Most Searched